Location: Unspecified
(0.0000°N, 0.0000°E)
Time: 23:32:23
(UTC+02:00)

SeaSat 1 - Visible Passes

Search period start: 23 June 2018 00:00
Search period end: 03 July 2018 00:00
Orbit: 744 x 748 km, 108.0° (Epoch: 23 June)

Date Brightness Start Highest point End Pass type
(mag) Time Alt. Az. Time Alt. Az. Time Alt. Az.
24 Jun 3.9 07:06:48 10° SE 07:11:25 41° ENE 07:16:00 10° N visible
25 Jun 6.0 06:28:11 10° E 06:29:31 11° ENE 06:30:50 10° NE visible
25 Jun 5.3 20:30:33 10° NNW 20:34:22 23° WNW 20:38:12 10° WSW visible
26 Jun 3.7 07:20:05 10° SE 07:24:48 46° ENE 07:29:30 10° N visible
27 Jun 5.9 06:40:46 10° E 06:42:54 13° ENE 06:45:01 10° NE visible
27 Jun 5.5 20:44:12 10° NNW 20:47:45 20° WNW 20:51:20 10° WSW visible
28 Jun 3.5 07:33:25 10° SE 07:38:12 53° ENE 07:42:58 10° N visible
29 Jun 5.8 06:53:38 10° E 06:56:17 15° ENE 06:58:56 10° NE visible
29 Jun 5.6 20:57:53 10° NNW 21:01:09 18° WNW 21:04:25 10° WSW visible
01 Jul 5.7 07:06:36 10° ESE 07:09:41 17° ENE 07:12:44 10° NNE visible
01 Jul 5.7 21:11:39 10° NNW 21:14:32 16° WNW 21:17:27 10° WSW visible
02 Jul 3.3 20:27:48 10° N 20:32:37 57° WNW 20:37:27 10° SSW visible
